Date String (YYYY-MM-DD hh:mm:ss) UTC,Instrument flags,absolute air pressure of the measurement (hPa),sample flow rate (lpm),inlet stack bypass flow (lpm),air temperature of the measurement (°C),ambient temperature measured by the external sensor (°C),aerosol sample conditioner tube jacket temperature (°C),OPC LED temperature (°C),internal box temperature (°C),relative humidity of the measurement (%),span deviation,mass concentration of particles derived from Lorenz-Mie calculation of OPC scattering (μg/m³),mass concentration of particles derived from Lorenz-Mie calculation of OPC scattering (μg/m³),mass concentration of particles derived from Lorenz-Mie calculation of OPC scattering (μg/m³)
DateTimeUTC,F1_M11,P_M11,Q1_M11,Q2_M11,T1_M11,T2_M11,T3_M11,T4_M11,T5_M11,U1_M11,ZSPAN_M11,X0_M11,X2_M11,X1_M11
2023-10-24 18:00:00,SystemResetWarning,0826.0,5.00,000.00,029.3,028.0,000.0,037.6,030.9,19.2,0000.0,0026.02,0006.94,0004.73
2023-10-24 18:01:00,SystemResetWarning,0826.0,5.00,000.00,029.3,028.1,000.0,037.6,030.9,19.4,0000.0,0027.61,0006.91,0004.71
2023-10-24 18:02:00,SystemResetWarning,0826.0,4.98,000.00,029.3,028.1,000.0,037.6,031.0,19.4,0000.0,0027.97,0006.82,0004.68
2023-10-24 18:03:00,SystemResetWarning,0825.9,5.00,000.00,029.3,028.0,000.0,037.6,031.0,19.4,0000.0,0027.70,0006.78,0004.66
2023-10-24 18:04:00,SystemResetWarning,0825.9,4.99,000.00,029.3,026.6,000.0,037.6,030.9,19.4,0000.0,0027.92,0006.84,0004.66
2023-10-24 18:05:00,SystemResetWarning,0825.9,5.00,000.00,029.2,024.8,000.0,037.5,030.7,19.6,0000.0,0027.34,0006.77,0004.64
2023-10-24 18:06:00,SystemResetWarning,0825.9,5.01,000.00,029.1,024.5,000.0,037.5,030.5,19.7,0000.0,0025.97,0006.78,0004.64
2023-10-24 18:07:00,SystemResetWarning,0825.9,5.01,000.00,028.9,024.7,000.0,037.5,030.2,19.9,0000.0,0024.93,0006.84,0004.62
2023-10-24 18:08:00,SystemResetWarning,0825.9,4.99,000.00,028.9,025.1,000.0,037.5,030.2,20.0,0000.0,0025.11,0006.85,0004.60
2023-10-24 18:09:00,SystemResetWarning,0825.9,5.00,000.00,028.8,025.5,000.0,037.5,030.2,20.0,0000.0,0024.63,0006.75,0004.58
2023-10-24 18:10:00,SystemResetWarning,0825.9,5.00,000.00,028.8,025.9,000.0,037.4,030.2,20.0,0000.0,0023.95,0006.66,0004.58
2023-10-24 18:11:00,SystemResetWarning,0825.9,5.00,000.00,028.8,026.2,000.0,037.4,030.3,19.8,0000.0,0023.50,0006.65,0004.57
2023-10-24 18:12:00,SystemResetWarning,0825.9,5.00,000.00,028.8,026.5,000.0,037.4,030.3,19.7,0000.0,0022.40,0006.64,0004.58
2023-10-24 18:13:00,SystemResetWarning,0825.9,5.00,000.00,028.8,026.8,000.0,037.4,030.3,19.7,0000.4,0022.79,0006.75,0004.60
2023-10-24 18:14:00,SystemResetWarning,0825.9,5.01,000.00,028.8,027.0,000.0,037.4,030.4,19.9,0000.6,0023.20,0006.85,0004.59
2023-10-24 18:15:00,SystemResetWarning,0825.9,5.00,000.00,028.8,027.1,000.0,037.4,030.4,19.8,0000.2,0023.11,0006.83,0004.58
2023-10-24 18:16:00,SystemResetWarning,0825.8,5.00,000.00,028.8,027.3,000.0,037.3,030.4,19.7,0000.0,0023.64,0006.93,0004.57
2023-10-24 18:17:00,SystemResetWarning,0825.8,4.99,000.00,028.9,027.4,000.0,037.3,030.5,19.7,0000.0,0023.97,0007.01,0004.56
2023-10-24 18:18:00,SystemResetWarning,0825.7,4.99,000.00,028.9,027.5,000.0,037.3,030.5,19.5,0000.0,0024.89,0007.00,0004.55
2023-10-24 18:19:00,SystemResetWarning,0825.8,5.00,000.00,028.9,027.6,000.0,037.4,030.6,19.3,0000.0,0024.62,0007.00,0004.53
2023-10-24 18:20:00,SystemResetWarning,0825.8,5.00,000.00,028.9,027.7,000.0,037.4,030.6,19.4,0000.0,0025.97,0007.02,0004.49
2023-10-24 18:21:00,SystemResetWarning,0825.8,5.00,000.00,029.0,027.7,000.0,037.4,030.6,19.2,0000.0,0026.31,0007.04,0004.47
2023-10-24 18:22:00,SystemResetWarning,0825.8,5.00,000.00,029.0,027.8,000.0,037.4,030.7,18.9,0000.0,0026.07,0006.98,0004.43
2023-10-24 18:23:00,SystemResetWarning,0825.8,5.00,000.00,029.0,027.8,000.0,037.4,030.7,19.4,0000.0,0026.00,0006.92,0004.41
2023-10-24 18:24:00,SystemResetWarning,0825.8,5.00,000.00,029.1,027.9,000.0,037.4,030.7,19.8,0000.0,0024.77,0006.84,0004.37
2023-10-24 18:25:00,SystemResetWarning,0825.7,4.99,000.00,029.1,027.9,000.0,037.4,030.8,19.4,0000.0,0024.24,0006.81,0004.36
2023-10-24 18:26:00,SystemResetWarning,0825.7,5.00,000.00,029.1,028.0,000.0,037.5,030.8,18.8,0000.0,0024.01,0006.76,0004.33
2023-10-24 18:27:00,SystemResetWarning,0825.7,5.00,000.00,029.1,028.0,000.0,037.5,030.8,18.5,0000.0,0023.26,0006.71,0004.32
2023-10-24 18:28:00,SystemResetWarning,0825.7,5.01,000.00,029.2,028.1,000.0,037.5,030.8,18.7,0000.0,0022.04,0006.60,0004.30
2023-10-24 18:29:00,SystemResetWarning,0825.8,5.00,000.00,029.2,028.1,000.0,037.5,030.9,19.1,0000.0,0021.06,0006.52,0004.27
2023-10-24 18:30:00,SystemResetWarning,0825.8,5.00,000.00,029.2,027.7,000.0,037.5,030.9,18.9,0000.0,0021.16,0006.44,0004.27
2023-10-24 18:31:00,SystemResetWarning,0825.8,5.00,000.00,029.2,025.8,000.0,037.5,030.8,18.8,0000.0,0019.65,0006.45,0004.29
2023-10-24 18:32:00,SystemResetWarning,0825.7,5.00,000.00,029.1,024.5,000.0,037.4,030.5,18.7,0000.0,0019.25,0006.44,0004.31
2023-10-24 18:33:00,SystemResetWarning,0825.7,5.01,000.00,029.0,024.6,000.0,037.3,030.4,19.1,0000.0,0019.22,0006.50,0004.33
2023-10-24 18:34:00,SystemResetWarning,0825.6,5.02,000.00,028.9,024.9,000.0,037.3,030.2,19.5,0000.0,0019.90,0006.53,0004.33
2023-10-24 18:35:00,SystemResetWarning,0825.6,5.00,000.00,028.8,025.3,000.0,037.4,030.2,19.6,0000.0,0022.88,0006.60,0004.32
2023-10-24 18:36:00,SystemResetWarning,0825.6,5.00,000.00,028.8,025.7,000.0,037.4,030.2,19.7,0000.0,0022.63,0006.53,0004.31
2023-10-24 18:37:00,SystemResetWarning,0825.7,5.00,000.00,028.7,026.1,000.0,037.3,030.3,19.9,0000.0,0023.09,0006.52,0004.32
2023-10-24 18:38:00,SystemResetWarning,0825.7,4.99,000.00,028.7,026.4,000.0,037.3,030.3,19.7,0000.0,0023.27,0006.55,0004.33
2023-10-24 18:39:00,SystemResetWarning,0825.7,5.00,000.00,028.7,026.7,000.0,037.3,030.4,19.4,0000.0,0024.06,0006.52,0004.33
2023-10-24 18:40:00,SystemResetWarning,0825.7,5.00,000.00,028.8,026.9,000.0,037.3,030.4,19.5,0000.0,0025.12,0006.54,0004.34
2023-10-24 18:41:00,SystemResetWarning,0825.7,5.00,000.00,028.8,027.1,000.0,037.3,030.5,19.6,0000.0,0025.85,0006.64,0004.36
2023-10-24 18:42:00,SystemResetWarning,0825.6,5.00,000.00,028.8,027.3,000.0,037.3,030.5,19.6,0000.0,0025.41,0006.65,0004.38
2023-10-24 18:43:00,SystemResetWarning,0825.6,5.01,000.00,028.8,027.4,000.0,037.3,030.5,19.5,0000.0,0025.26,0006.67,0004.39
2023-10-24 18:44:00,SystemResetWarning,0825.6,5.00,000.00,028.9,027.5,000.0,037.3,030.5,19.5,0000.0,0024.73,0006.69,0004.39
2023-10-24 18:45:00,SystemResetWarning,0825.6,4.99,000.00,028.9,027.6,000.0,037.3,030.6,19.3,0000.0,0024.52,0006.70,0004.40
2023-10-24 18:46:00,SystemResetWarning,0825.6,5.00,000.00,028.9,027.7,000.0,037.3,030.6,19.4,0000.0,0022.38,0006.74,0004.42
2023-10-24 18:47:00,SystemResetWarning,0825.6,5.01,000.00,029.0,027.8,000.0,037.4,030.7,19.4,0000.0,0022.42,0006.72,0004.43
2023-10-24 18:48:00,SystemResetWarning,0825.6,5.02,000.00,029.0,027.9,000.0,037.4,030.7,19.5,0000.0,0023.47,0006.79,0004.41
2023-10-24 18:49:00,SystemResetWarning,0825.6,4.99,000.00,029.0,027.9,000.0,037.4,030.7,19.1,0000.0,0023.26,0006.75,0004.39
2023-10-24 18:50:00,SystemResetWarning,0825.6,5.00,000.00,029.1,027.8,000.0,037.4,030.8,18.8,0000.0,0022.73,0006.73,0004.39
2023-10-24 18:51:00,SystemResetWarning,0825.5,4.98,000.00,029.1,026.3,000.0,037.4,030.7,19.0,0000.0,0021.83,0006.77,0004.40
2023-10-24 18:52:00,SystemResetWarning,0825.5,5.01,000.00,029.0,024.6,000.0,037.3,030.4,19.1,0000.0,0022.26,0006.70,0004.38
2023-10-24 18:53:00,SystemResetWarning,0825.5,5.01,000.00,028.9,024.3,000.0,037.2,030.3,18.7,0000.0,0022.74,0006.75,0004.37
2023-10-24 18:54:00,SystemResetWarning,0825.5,5.00,000.00,028.7,024.6,000.0,037.2,030.1,18.7,0000.0,0023.42,0006.77,0004.34
2023-10-24 18:55:00,SystemResetWarning,0825.4,5.00,000.00,028.7,025.0,000.0,037.2,030.0,19.1,0000.0,0023.62,0006.71,0004.32
2023-10-24 18:56:00,SystemResetWarning,0825.4,5.00,000.00,028.6,025.5,000.0,037.2,030.1,19.2,0000.0,0023.70,0006.74,0004.31
2023-10-24 18:57:00,SystemResetWarning,0825.4,4.99,000.00,028.6,025.9,000.0,037.2,030.1,19.0,0000.0,0023.22,0006.71,0004.29
2023-10-24 18:58:00,SystemResetWarning,0825.4,5.00,000.00,028.6,026.2,000.0,037.2,030.2,18.9,0000.0,0023.41,0006.71,0004.29
2023-10-24 18:59:00,SystemResetWarning,0825.4,5.00,000.00,028.6,026.5,000.0,037.2,030.2,18.9,0000.0,0021.67,0006.69,0004.32
